Weather in Berlin

Germany     52°31′11″N   13°24′26″E
temp.,
°C
wind,
m/s
gust,
m/s
humid.,
%
clouds,
%
prec.,
mm/h
press.,
hPa
HPBL,
m
8 may, sat
sat823:00+4wsw38925 0.1 1016208
02:00+3w410891 0.1 1017326
05:00+2wsw39925 0.0 1018244
08:00+5w47825 0.0 1019369
11:00+11w46509 0.0 10181667
14:00+13w453496 0.0 10182342
17:00+14wsw353081 0.0 10162437
20:00+12s3548100 0.0 1016296
9 may, sun
sun923:00+10sse495591 0.0 1015316
02:00+10se41256100 0.0 1013370
05:00+10s4116316 0.0 1012372
08:00+12s41064100 0.0 1012294
11:00+18s5851100 0.0 1011642
14:00+22s5741100 0.0 10111250
17:00+24s5739100 0.0 10091278
20:00+20sse41157100 0.0 1009484
10 may, mon
mon1023:00+16sse5137277 0.0 1009407
02:00+14se4117241 0.0 1009320
05:00+12se5127540 0.0 1008344
08:00+14se51262100 0.0 1008461
11:00+19se575061 0.0 1007700
14:00+24ssw463945 0.0 10071072
17:00+26sw35410 0.0 10081706
20:00+21nw596699 0.0 1009460
11 may, tue
tue1123:00+17n4985100 0.0 1010357
02:00+15ne51286100 0.0 1008399
05:00+13ne4890100 0.0 1007220
08:00+15e24837 0.0 1006296
11:00+21wsw236275 0.0 10061081
14:00+20wnw546599 0.0 1006710
17:00+17nnw2273100 0.0 1006598
20:00+14nnw3478100 0.1 1007337
12 may, wed
wed1223:00+13nnw2492100 1.9 1007212
02:00+12nw349595 3.4 1006266
05:00+11nnw359599 0.0 1005244
08:00+11wnw3395100 0.1 1005263
11:00+11wnw4594100 0.0 1007396
14:00+10w4692100 0.1 1008523
17:00+11wnw4891100 0.1 1009573
20:00+11nw4888100 0.1 1010665